| time (UTC) | temp C | wind direction | speed KPH | gust KPH | rain 1hr cm | rain 24hr cm | rain mn cm | humidity % | barometer mb |
| 20260502130549 | 20 | 71 | 1.6 | 11.3 | 0.00 | 0.00 | 0.00 | 27 | 1010.8 |
| 20260502123617 | 20 | 82 | 1.6 | 19.3 | 0.00 | 0.00 | 0.00 | 27 | 1010.6 |
| 20260502122626 | 20 | 90 | 3.2 | 19.3 | 0.00 | 0.00 | 0.00 | 26 | 1010.4 |
| 20260502121618 | 20 | 94 | 6.4 | 17.7 | 0.00 | 0.00 | 0.00 | 26 | 1010.3 |
| 20260502120630 | 20 | 97 | 4.8 | 16.1 | 0.00 | 0.00 | 0.00 | 26 | 1010.3 |
| 20260502115627 | 20 | 96 | 3.2 | 14.5 | 0.00 | 0.00 | 0.00 | 26 | 1010.3 |
| 20260502113531 | 20 | 86 | 3.2 | 12.9 | 0.00 | 0.00 | 0.00 | 25 | 1010.2 |
| 20260502112518 | 20 | 69 | 1.6 | 8.0 | 0.00 | 0.00 | 0.00 | 25 | 1010.2 |
| 20260502111516 | 20 | 69 | 1.6 | 11.3 | 0.00 | 0.00 | 0.00 | 25 | 1010.2 |
| 20260502110536 | 20 | 70 | 0.0 | 11.3 | 0.00 | 0.00 | 0.00 | 25 | 1010.2 |
| 20260502105551 | 20 | 70 | 0.0 | 6.4 | 0.00 | 0.00 | 0.00 | 25 | 1010.2 |
| 20260502104525 | 21 | 71 | 0.0 | 0.0 | 0.00 | 0.00 | 0.00 | 25 | 1010.2 |
| 20260502103504 | 21 | 71 | 0.0 | 0.0 | 0.00 | 0.00 | 0.00 | 24 | 1010.2 |
| 20260502102432 | 21 | 65 | 0.0 | 12.9 | 0.00 | 0.00 | 0.00 | 24 | 1010.0 |
| 20260502101413 | 21 | 63 | 1.6 | 12.9 | 0.00 | 0.00 | 0.00 | 24 | 1010.0 |
| 20260502100431 | 21 | 62 | 3.2 | 11.3 | 0.00 | 0.00 | 0.00 | 25 | 1009.8 |
| 20260502091302 | 21 | 76 | 3.2 | 14.5 | 0.00 | 0.00 | 0.00 | 24 | 1009.8 |
| 20260502090243 | 21 | 70 | 3.2 | 14.5 | 0.00 | 0.00 | 0.00 | 24 | 1009.8 |
| 20260502071227 | 22 | 77 | 4.8 | 16.1 | 0.00 | 0.00 | 0.00 | 24 | 1010.1 |
| 20260502070239 | 22 | 71 | 3.2 | 16.1 | 0.00 | 0.00 | 0.00 | 23 | 1010.0 |
| 20260502065222 | 22 | 67 | 1.6 | 9.7 | 0.00 | 0.00 | 0.00 | 25 | 1010.0 |
| 20260502064159 | 22 | 75 | 4.8 | 16.1 | 0.00 | 0.00 | 0.00 | 27 | 1009.9 |
| 20260502063207 | 22 | 74 | 3.2 | 16.1 | 0.00 | 0.00 | 0.00 | 26 | 1009.8 |
| 20260502062231 | 22 | 72 | 0.0 | 9.7 | 0.00 | 0.00 | 0.00 | 27 | 1009.6 |
| 20260502061243 | 22 | 84 | 0.0 | 1.6 | 0.00 | 0.00 | 0.00 | 27 | 1009.4 |
| 20260502060238 | 22 | 88 | 0.0 | 4.8 | 0.00 | 0.00 | 0.00 | 27 | 1009.2 |
| 20260502055253 | 21 | 115 | 0.0 | 4.8 | 0.00 | 0.00 | 0.00 | 28 | 1009.1 |
| 20260502054228 | 21 | 192 | 0.0 | 0.0 | 0.00 | 0.00 | 0.00 | 29 | 1009.0 |
| 20260502053212 | 21 | 194 | 0.0 | 0.0 | 0.00 | 0.00 | 0.00 | 29 | 1009.0 |
| 20260502045920 | 21 | 196 | 0.0 | 0.0 | 0.00 | 0.00 | 0.00 | 28 | 1008.9 |
| 20260502044848 | 21 | 198 | 0.0 | 0.0 | 0.00 | 0.00 | 0.00 | 28 | 1008.9 |
| 20260502043845 | 22 | 200 | 0.0 | 0.0 | 0.00 | 0.00 | 0.00 | 27 | 1008.9 |
| 20260502042829 | 22 | 200 | 0.0 | 0.0 | 0.00 | 0.00 | 0.00 | 27 | 1008.8 |
| 20260502041802 | 22 | 200 | 0.0 | 0.0 | 0.00 | 0.00 | 0.00 | 27 | 1008.8 |
| 20260502035629 | 22 | 200 | 0.0 | 0.0 | 0.00 | 0.00 | 0.00 | 26 | 1008.5 |
| 20260502034612 | 22 | 200 | 0.0 | 0.0 | 0.00 | 0.00 | 0.00 | 26 | 1008.3 |
| 20260502033602 | 23 | 200 | 0.0 | 0.0 | 0.00 | 0.00 | 0.00 | 24 | 1008.2 |
| 20260502032554 | 23 | 200 | 0.0 | 0.0 | 0.00 | 0.00 | 0.00 | 24 | 1008.1 |
| 20260502031557 | 23 | 200 | 0.0 | 0.0 | 0.00 | 0.00 | 0.00 | 24 | 1007.7 |
| 20260502025351 | 24 | 200 | 0.0 | 0.0 | 0.00 | 0.00 | 0.00 | 23 | 1007.4 |
| 20260502024352 | 25 | 200 | 0.0 | 0.0 | 0.00 | 0.00 | 0.00 | 23 | 1007.4 |
| 20260502023328 | 25 | 200 | 0.0 | 0.0 | 0.00 | 0.00 | 0.00 | 23 | 1007.1 |
| 20260502022349 | 25 | 200 | 0.0 | 0.0 | 0.00 | 0.00 | 0.00 | 22 | 1007.1 |
| 20260502021352 | 25 | 200 | 3.2 | 9.7 | 0.00 | 0.00 | 0.00 | 22 | 1006.9 |
| 20260502020353 | 26 | 200 | 1.6 | 9.7 | 0.00 | 0.00 | 0.00 | 21 | 1007.0 |
| 20260502015402 | 26 | 201 | 3.2 | 9.7 | 0.00 | 0.00 | 0.00 | 20 | 1006.8 |
| 20260502014340 | 26 | 200 | 1.6 | 9.7 | 0.00 | 0.00 | 0.00 | 20 | 1006.9 |
| 20260502013339 | 26 | 185 | 6.4 | 12.9 | 0.00 | 0.00 | 0.00 | 19 | 1006.8 |
| 20260502012337 | 27 | 240 | 4.8 | 17.7 | 0.00 | 0.00 | 0.00 | 18 | 1006.8 |
| 20260502011400 | 27 | 224 | 6.4 | 17.7 | 0.00 | 0.00 | 0.00 | 17 | 1006.7 |
| 20260502010354 | 27 | 230 | 8.0 | 17.7 | 0.00 | 0.00 | 0.00 | 18 | 1006.8 |
| 20260502005343 | 27 | 204 | 4.8 | 17.7 | 0.00 | 0.00 | 0.00 | 18 | 1006.7 |
| 20260502004330 | 27 | 236 | 6.4 | 17.7 | 0.00 | 0.00 | 0.00 | 17 | 1006.8 |
| 20260502003343 | 27 | 211 | 8.0 | 19.3 | 0.00 | 0.00 | 0.00 | 17 | 1006.8 |
| 20260502001126 | 27 | 186 | 6.4 | 20.9 | 0.00 | 0.00 | 0.00 | 18 | 1006.9 |
| 20260502000130 | 27 | 229 | 9.7 | 20.9 | 0.00 | 0.00 | 0.00 | 18 | 1007.1 |
| 20260501235120 | 27 | 257 | 11.3 | 24.1 | 0.00 | 0.00 | 0.00 | 18 | 1007.0 |
| 20260501234108 | 27 | 204 | 11.3 | 24.1 | 0.00 | 0.00 | 0.00 | 19 | 1007.0 |
| 20260501233122 | 27 | 272 | 9.7 | 17.7 | 0.00 | 0.00 | 0.00 | 19 | 1006.9 |
| 20260501232142 | 27 | 217 | 8.0 | 17.7 | 0.00 | 0.00 | 0.00 | 19 | 1006.9 |
| 20260501231157 | 27 | 259 | 8.0 | 20.9 | 0.00 | 0.00 | 0.00 | 18 | 1006.9 |
| 20260501230146 | 27 | 234 | 8.0 | 25.7 | 0.00 | 0.00 | 0.00 | 20 | 1006.8 |
| 20260501225142 | 27 | 227 | 11.3 | 25.7 | 0.00 | 0.00 | 0.00 | 20 | 1007.1 |
| 20260501224107 | 27 | 187 | 9.7 | 22.5 | 0.00 | 0.00 | 0.00 | 21 | 1007.1 |
| 20260501223118 | 27 | 185 | 6.4 | 22.5 | 0.00 | 0.00 | 0.00 | 21 | 1007.4 |
| 20260501222119 | 27 | 204 | 11.3 | 22.5 | 0.00 | 0.00 | 0.00 | 20 | 1007.3 |
| 20260501214858 | 27 | 246 | 11.3 | 22.5 | 0.00 | 0.00 | 0.00 | 22 | 1007.8 |
| 20260501213900 | 27 | 245 | 9.7 | 22.5 | 0.00 | 0.00 | 0.00 | 22 | 1007.9 |
| 20260501212900 | 27 | 194 | 8.0 | 25.7 | 0.00 | 0.00 | 0.00 | 20 | 1008.1 |
| 20260501211912 | 27 | 248 | 11.3 | 25.7 | 0.00 | 0.00 | 0.00 | 21 | 1008.1 |
| 20260501210852 | 27 | 268 | 3.2 | 16.1 | 0.00 | 0.00 | 0.00 | 22 | 1008.2 |
| 20260501205820 | 26 | 304 | 3.2 | 22.5 | 0.00 | 0.00 | 0.00 | 22 | 1008.5 |
| 20260501204823 | 26 | 210 | 8.0 | 22.5 | 0.00 | 0.00 | 0.00 | 23 | 1008.5 |
| 20260501203843 | 26 | 184 | 8.0 | 19.3 | 0.00 | 0.00 | 0.00 | 23 | 1008.6 |
| 20260501202835 | 26 | 188 | 3.2 | 20.9 | 0.00 | 0.00 | 0.00 | 23 | 1008.6 |
| 20260501200638 | 26 | 198 | 8.0 | 20.9 | 0.00 | 0.00 | 0.00 | 25 | 1008.8 |
| 20260501195701 | 25 | 205 | 9.7 | 20.9 | 0.00 | 0.00 | 0.00 | 26 | 1009.0 |
| 20260501194627 | 26 | 190 | 4.8 | 16.1 | 0.00 | 0.00 | 0.00 | 26 | 1009.0 |
| 20260501192527 | 25 | 282 | 6.4 | 24.1 | 0.00 | 0.00 | 0.00 | 27 | 1009.2 |
| 20260501191529 | 25 | 177 | 6.4 | 20.9 | 0.00 | 0.00 | 0.00 | 28 | 1009.3 |
| 20260501190550 | 25 | 231 | 3.2 | 8.0 | 0.00 | 0.00 | 0.00 | 28 | 1009.6 |
| 20260501185609 | 24 | 177 | 9.7 | 17.7 | 0.00 | 0.00 | 0.00 | 28 | 1009.4 |
| 20260501184547 | 25 | 186 | 8.0 | 16.1 | 0.00 | 0.00 | 0.00 | 29 | 1009.7 |
| 20260501183515 | 25 | 176 | 3.2 | 12.9 | 0.00 | 0.00 | 0.00 | 29 | 1009.7 |
| 20260501182508 | 24 | 179 | 4.8 | 14.5 | 0.00 | 0.00 | 0.00 | 30 | 1009.9 |
| 20260501181520 | 24 | 195 | 1.6 | 14.5 | 0.00 | 0.00 | 0.00 | 31 | 1010.2 |
| 20260501180503 | 23 | 215 | 3.2 | 12.9 | 0.00 | 0.00 | 0.00 | 31 | 1010.4 |
| 20260501175518 | 23 | 215 | 3.2 | 12.9 | 0.00 | 0.00 | 0.00 | 32 | 1010.4 |
| 20260501173350 | 23 | 244 | 8.0 | 14.5 | 0.00 | 0.00 | 0.00 | 33 | 1010.5 |
| 20260501172404 | 23 | 263 | 1.6 | 9.7 | 0.00 | 0.00 | 0.00 | 33 | 1010.5 |
| 20260501171354 | 22 | 186 | 6.4 | 14.5 | 0.00 | 0.00 | 0.00 | 34 | 1010.4 |
| 20260501170415 | 22 | 238 | 1.6 | 14.5 | 0.00 | 0.00 | 0.00 | 35 | 1010.5 |
| 20260501165404 | 22 | 255 | 3.2 | 11.3 | 0.00 | 0.00 | 0.00 | 35 | 1010.5 |
| 20260501164419 | 22 | 263 | 1.6 | 11.3 | 0.00 | 0.00 | 0.00 | 36 | 1010.5 |
| 20260501163351 | 22 | 281 | 1.6 | 11.3 | 0.00 | 0.00 | 0.00 | 36 | 1010.4 |
| 20260501162356 | 22 | 205 | 3.2 | 11.3 | 0.00 | 0.00 | 0.00 | 37 | 1010.4 |
| 20260501161329 | 21 | 197 | 3.2 | 12.9 | 0.00 | 0.00 | 0.00 | 37 | 1010.3 |
| 20260501160349 | 21 | 199 | 6.4 | 12.9 | 0.00 | 0.00 | 0.00 | 38 | 1010.4 |
| 20260501155343 | 21 | 195 | 6.4 | 16.1 | 0.00 | 0.00 | 0.00 | 38 | 1010.3 |
| 20260501154317 | 21 | 195 | 6.4 | 16.1 | 0.00 | 0.00 | 0.00 | 38 | 1010.2 |
| 20260501153336 | 21 | 109 | 0.0 | 4.8 | 0.00 | 0.00 | 0.00 | 36 | 1010.0 |
| 20260501152320 | 21 | 95 | 0.0 | 1.6 | 0.00 | 0.00 | 0.00 | 36 | 1009.9 |
| 20260501151339 | 21 | 93 | 0.0 | 0.0 | 0.00 | 0.00 | 0.00 | 37 | 1010.0 |
| 20260501150322 | 21 | 93 | 0.0 | 0.0 | 0.00 | 0.00 | 0.00 | 37 | 1009.8 |
| 20260501145249 | 20 | 94 | 0.0 | 0.0 | 0.00 | 0.00 | 0.00 | 37 | 1009.7 |
| 20260501144246 | 20 | 94 | 0.0 | 0.0 | 0.00 | 0.00 | 0.00 | 38 | 1009.5 |
| 20260501142130 | 20 | 94 | 0.0 | 0.0 | 0.00 | 0.00 | 0.00 | 39 | 1009.4 |